轨道通信卫星FM17星 (ORBCOMM FM17)

导读

ORBCOMM FM 17是国际联合Orbcomm低轨卫星移动通信系统的成员,由国际团队开发,于1998年8月2日发射。该卫星运行于近地轨道,属于小型卫星,搭载甚高频与特高频转发器,主要服务全球短数据通信、资产远程监测与位置跟踪,助力实现全球范围低成本的机器间与用户信息传输,是早期低轨物联网通信星座建设的重要组成。

基本信息
目录编号:
25413
目录名称:
ORBCOMM FM 17
国际标识:
1998-046A
轨道中心:
EARTH
卫星名称:
轨道通信卫星FM17星
卫星全名:
轨道通信卫星FM17星 (ORBCOMM FM17)
卫星状态:
在轨 (已飞行10267 天)
发射日期:
1998-08-02 UTC
国别 :
(ORB)
星等 :
--
该卫星已列入 空间交会检测服务 Space Conjunction Data Service (SCDS) ,当前飞行风险评估等级: 无高风险
轨道信息
数据来源 国际轨道数据 AOE轨道数据
星历时间 2026-09-11T09:30:11+0800
11小时前
查看轨道信息
2026-09-06T06:00:00+0800
5天前
查看轨道信息
半长轴 7149.874km 7149.89km
偏心率 0.0004758 0.0004533
轨道倾角 44.993° 44.995°
近地点辐角 283.259° 260.259°
升交点赤经 287.952° 312.275°
平近点角 76.773° 111.419°
近地点 768.335km 768.511km
远地点 775.139km 774.995km
周期 100.278分钟 100.279分钟
每日圈数 14.360025 14.359979
详细信息
固有亮度:
8
最大亮度:
6.9
平衡模式:
三轴稳定
覆盖范围:
全球
运营商:
轨道通信公司
运营商所在国:
美国
制造商(研发单位):
轨道ATK公司
制造商所在国:
美国
使用方式:
暂无
卫星简介
轨道通信FM(Orbcomm FM)是一系列低地球轨道通信卫星,由美国卫星通信公司 Orbcomm运营。 截至2015年12月,已有63颗此类卫星绕地球运行。该卫星已退役。
2D轨道图
3D轨道图
轨道高度分析图
轨道倾角分析图
轨道综合分析图
查看轨道综合分析图
与全量物体交会距离演化趋势
与全量物体交会风险概率演化趋势